Location: Rochester
(43.1610°N, 77.6109°W)
Time: 09:05:25
(UTC-05:00)

CAS-4A - Pass Details

Date: 23 October 2021
Orbit: 529 x 539 km, 43.0° (Epoch: 04 December)

Event Time Altitude Azimuth Distance (km) Brightness Sun altitude
Rises 21:03:22 0° 278° (W) 2,687 ? -31.3°
Reaches altitude 10° 21:06:03 10° 261° (W) 1,791 ? -31.8°
Enters shadow 21:07:20 16° 246° (WSW) 1,468 ? -32.0°
